Weather History for Gillette, WY

Change the Weather History Date:

Friday, May 31, 2013

  Actual Average Record
Temperature  
Mean Temperature 46 °F 57 °F  
Max Temperature 48 °F 71 °F 88 °F (1940)
Min Temperature 43 °F 43 °F 30 °F (1951)
Degree Days  
Heating Degree Days 19 8  
Month to date heating degree days 351 385  
Since 1 July heating degree days 7313 7402  
Cooling Degree Days 0 1  
Month to date cooling degree days 8 8  
Year to date cooling degree days 8 8  
Moisture  
Dew Point 42 °F    
Average Humidity 88    
Maximum Humidity 100    
Minimum Humidity 76    
Precipitation  
Precipitation 0.41 in 0.09 in 0.98 in (1939)
Month to date precipitation 3.92 2.45  
Year to date precipitation 7.04 5.66  
Sea Level Pressure  
Sea Level Pressure 29.86 in    
Wind  
Wind Speed 28 mph (NW)    
Max Wind Speed 40 mph    
Max Gust Speed 51 mph    
Visibility 8 miles    
Events Rain    
T = Trace of Precipitation, MM = Missing Value Source: NWS Daily Summary

Daily Weather History Graph

Daily Weather History Graph

Search for Another Location

Airport:

Trip Planner

Search our weather history database for the weather conditions in past years. The results will help you decide how hot, cold, wet, or windy it might be!

Date:

Astronomy

May. 31, 2013 Rise Set
Actual Time 5:21 AM MDT 8:38 PM MDT
Civil Twilight 4:45 AM MDT 9:14 PM MDT
Nautical Twilight 3:59 AM MDT 10:00 PM MDT
Astronomical Twilight 3:02 AM MDT 10:58 PM MDT
Moon 1:03 AM MDT (5/31) 12:51 PM MDT (5/31)
Length of Visible Light 16h 28m
Length of Day
15h 17m
Waning Gibbous, 51% of the Moon is Illuminated
May 31
Waning Gibbous
May 31
Last Quarter
Jun 8
New
Jun 16
First Quarter
Jun 23
Full

Hourly Weather History & Observations

Time (MDT) Temp. Windchill Dew Point Humidity Pressure Visibility Wind Dir Wind Speed Gust Speed Precip Events Conditions
12:53 AM 45.0 °F 36.4 °F 41.0 °F 86% 29.68 in 10.0 mi WNW 23.0 mph 38.0 mph 0.00 in   Overcast
1:53 AM 45.0 °F 35.6 °F 39.9 °F 82% 29.68 in 10.0 mi WNW 27.6 mph 38.0 mph N/A   Overcast
2:53 AM 44.1 °F 34.6 °F 41.0 °F 89% 29.68 in 8.0 mi WNW 26.5 mph 39.1 mph 0.01 in Rain Light Rain
3:53 AM 44.1 °F 33.8 °F 41.0 °F 89% 29.67 in 10.0 mi WNW 31.1 mph 44.9 mph 0.02 in Rain Light Rain
4:53 AM 44.1 °F 34.4 °F 41.0 °F 89% 29.67 in 10.0 mi WNW 27.6 mph 38.0 mph 0.00 in Rain Light Rain
5:53 AM 43.0 °F 32.5 °F 39.9 °F 89% 29.68 in 10.0 mi WNW 29.9 mph 38.0 mph 0.01 in Rain Light Rain
6:53 AM 44.1 °F 34.2 °F 39.9 °F 85% 29.68 in 10.0 mi WNW 28.8 mph 38.0 mph 0.01 in Rain Light Rain
7:53 AM 44.1 °F 34.6 °F 39.9 °F 85% 29.70 in 10.0 mi WNW 26.5 mph 42.6 mph 0.00 in   Overcast
8:53 AM 45.0 °F 34.7 °F 39.9 °F 82% 29.71 in 10.0 mi WNW 33.4 mph 41.4 mph N/A   Overcast
9:53 AM 46.0 °F 37.0 °F 39.9 °F 79% 29.72 in 10.0 mi NW 27.6 mph 38.0 mph N/A   Overcast
10:53 AM 46.9 °F - 39.9 °F 77% 29.74 in 10.0 mi WNW 34.5 mph 50.6 mph N/A   Overcast
11:50 AM 46.4 °F 36.7 °F 41.0 °F 81% 29.77 in 10.0 mi NW 33.4 mph 47.2 mph N/A   Overcast
11:53 AM 46.9 °F - 41.0 °F 80% 29.76 in 10.0 mi WNW 32.2 mph 47.2 mph N/A   Overcast
12:20 PM 46.4 °F 37.5 °F 41.0 °F 81% 29.78 in 10.0 mi WNW 27.6 mph 39.1 mph 0.00 in Rain Light Rain
12:53 PM 46.9 °F - 41.0 °F 80% 29.76 in 10.0 mi NW 32.2 mph 44.9 mph 0.00 in   Overcast
1:53 PM 46.9 °F - 43.0 °F 86% 29.79 in 10.0 mi NW 25.3 mph 39.1 mph 0.00 in   Overcast
2:53 PM 48.0 °F - 44.1 °F 86% 29.82 in 10.0 mi NW 31.1 mph 43.7 mph 0.00 in Rain Light Rain
3:53 PM 46.9 °F - 43.0 °F 86% 29.83 in 10.0 mi NW 24.2 mph 36.8 mph 0.01 in   Overcast
4:45 PM 46.4 °F 37.0 °F 42.8 °F 87% 29.87 in 10.0 mi NW 31.1 mph 41.4 mph 0.00 in Rain Light Rain
4:53 PM 46.9 °F - 43.0 °F 86% 29.86 in 10.0 mi NW 29.9 mph 40.3 mph 0.01 in Rain Light Rain
5:08 PM 46.4 °F 38.1 °F 42.8 °F 87% 29.89 in 6.0 mi NNW 24.2 mph 32.2 mph 0.01 in Rain Light Rain
5:53 PM 46.0 °F 36.4 °F 43.0 °F 89% 29.88 in 10.0 mi NW 32.2 mph 43.7 mph 0.02 in   Overcast
6:19 PM 46.4 °F 37.7 °F 42.8 °F 87% 29.90 in 10.0 mi NW 26.5 mph 39.1 mph 0.00 in Rain Light Rain
6:53 PM 45.0 °F 35.1 °F 41.0 °F 86% 29.92 in 10.0 mi NW 31.1 mph 43.7 mph 0.00 in   Overcast
7:06 PM 44.6 °F 34.7 °F 41.0 °F 87% 29.93 in 10.0 mi NW 29.9 mph 36.8 mph N/A   Overcast
7:45 PM 44.6 °F 34.9 °F 42.8 °F 93% 29.94 in 4.0 mi NW 28.8 mph 39.1 mph 0.02 in Rain Light Rain
7:53 PM 44.1 °F 33.5 °F 42.1 °F 93% 29.94 in 4.0 mi NW 33.4 mph 43.7 mph 0.02 in Rain Light Rain
8:02 PM 44.6 °F 35.1 °F 42.8 °F 93% 29.94 in 4.0 mi NW 27.6 mph 39.1 mph 0.01 in Rain Light Rain
8:09 PM 44.6 °F 35.5 °F 42.8 °F 93% 29.95 in 3.0 mi NW 25.3 mph 40.3 mph 0.01 in Rain Light Rain
8:53 PM 45.0 °F 36.0 °F 43.0 °F 93% 29.98 in 5.0 mi NW 25.3 mph 36.8 mph 0.04 in Rain Light Rain
9:34 PM 44.6 °F 35.7 °F 42.8 °F 93% 30.02 in 5.0 mi NW 24.2 mph 31.1 mph 0.07 in Rain Rain
9:49 PM 44.6 °F 36.4 °F 42.8 °F 93% 30.02 in 8.0 mi NW 20.7 mph 33.4 mph 0.10 in Rain Light Rain
9:53 PM 45.0 °F 37.1 °F 43.0 °F 93% 30.01 in 7.0 mi NW 19.6 mph 33.4 mph 0.10 in Rain Light Rain
10:15 PM 44.6 °F 36.4 °F 42.8 °F 93% 30.04 in 6.0 mi NNW 20.7 mph 27.6 mph 0.01 in Rain Light Rain
10:23 PM 44.6 °F 36.4 °F 44.6 °F 100% 30.04 in 6.0 mi NNW 20.7 mph 27.6 mph 0.03 in Rain Light Rain
10:53 PM 45.0 °F 37.6 °F 44.1 °F 97% 30.03 in 6.0 mi NW 17.3 mph 26.5 mph 0.05 in Rain Light Rain
11:12 PM 46.4 °F 38.3 °F 44.6 °F 93% 30.05 in 10.0 mi NW 23.0 mph 33.4 mph 0.00 in Rain Light Rain
11:36 PM 46.4 °F 39.2 °F 44.6 °F 93% 30.07 in 10.0 mi NNW 18.4 mph 26.5 mph 0.03 in Rain Light Rain
11:46 PM 46.4 °F 39.2 °F 44.6 °F 93% 30.07 in 6.0 mi NNW 18.4 mph 24.2 mph 0.04 in Rain Light Rain
11:53 PM 45.0 °F 38.2 °F 44.1 °F 97% 30.07 in 5.0 mi NNW 15.0 mph 24.2 mph 0.05 in Rain Light Rain